Lid_Strength_Index
12 12 12 13 13 12 13 12 16 13 13 11 10 9 8 7 7 7 7 6 7 7 7 7 6 4 3 3 3 3 3 3 4 4 4 3 3 2 2 2 2 3 3 2
15 12 11 13 12 11 11 11 12 12 13 8 8 7 8 7 7 7 7 6 7 6 6 5 5 4 4 3 3 3 3 3 3 3 3 3 3 3 3 3 3 2 3 3
17 12 13 16 12 12 12 10 12 15 11 8 9 9 8 8 7 7 6 6 6 5 5 5 4 4 4 3 3 3 3 3 3 3 3 3 3 3 3 3 3 3 3 3
17 15 20 13 9 10 11 10 10 10 10 9 9 8 7 6 7 7 7 6 5 5 5 4 4 3 3 3 3 3 3 3 3 2 2 3 3 3 3 2 2 2 2 3
17 18 14 12 11 12 13 13 9 10 9 8 8 8 7 5 6 8 7 6 4 4 4 4 3 3 3 4 3 3 3 3 3 2 3 3 3 3 2 2 2 2 3 4
15 19 21 14 10 8 9 16 9 9 9 9 8 13 10 7 6 7 7 6 4 4 4 4 3 3 5 4 3 4 4 3 3 3 2 3 2 2 2 2 3 3 4 4
16 17 15 10 9 8 16 15 8 9 8 8 10 9 7 6 6 6 7 5 4 4 4 4 3 3 4 4 4 3 3 3 3 2 2 2 2 2 2 2 3 3 4 4
15 17 19 8 9 13 10 8 9 8 7 8 8 7 6 5 6 6 6 4 4 4 4 3 4 3 4 4 3 2 2 2 2 2 2 2 2 2 2 3 3 4 3 3
14 14 9 8 9 7 7 8 8 7 7 7 8 7 6 6 5 5 5 4 4 4 4 3 3 3 4 3 2 2 3 3 2 2 2 2 2 3 3 3 3 3 3 4
12 10 9 8 7 6 7 7 6 6 7 7 7 6 6 6 6 5 4 5 4 4 4 4 3 3 3 2 2 2 3 3 3 3 3 3 2 2 3 3 3 3 4 4
11 9 8 7 7 8 7 6 7 6 6 6 6 6 6 6 5 5 5 4 4 4 4 4 3 3 2 2 2 3 3 3 3 3 3 5 7 6 3 4 3 3 4 3
13 8 9 8 8 7 7 7 7 6 6 6 6 6 6 7 6 5 5 4 4 4 4 4 3 3 2 2 2 3 3 3 3 4 4 5 6 7 13 12 11 9 8 5
8 6 7 8 8 6 7 7 6 6 5 7 6 6 7 7 5 5 4 4 4 4 3 3 3 3 2 2 2 2 3 3 3 4 4 5 5 5 7 10 13 13 11 11
7 7 9 8 9 7 7 7 6 5 6 6 7 7 7 6 6 6 5 4 3 3 4 3 3 3 2 2 2 3 3 5 3 3 4 4 4 4 4 4 5 7 11 11
7 7 8 8 7 7 7 7 8 7 7 9 8 8 8 8 7 7 6 5 7 6 6 3 3 3 2 2 2 3 3 3 2 2 3 4 4 4 4 4 5 7 7 9
7 8 8 9 8 8 8 8 8 8 8 10 10 9 8 8 8 8 7 7 9 9 8 5 3 3 2 2 2 3 3 7 4 2 3 3 3 4 4 5 4 4 5 6
9 9 9 9 8 9 9 8 9 9 8 10 10 9 9 9 9 9 9 9 9 9 9 9 7 3 3 4 4 3 3 4 7 2 3 3 3 4 4 4 4 3 4 5
7 8 9 8 9 9 9 8 9 9 9 9 10 10 11 10 11 10 10 10 10 8 9 9 9 6 5 5 4 2 2 3 3 3 2 3 3 3 3 3 4 3 4 8
7 8 8 8 8 8 9 9 9 10 11 10 11 11 11 11 11 10 11 11 11 10 11 9 11 8 6 7 5 3 3 3 3 3 2 5 3 2 3 3 3 3 3 4
7 7 7 7 8 9 9 9 10 11 10 11 10 11 11 12 12 11 11 13 13 12 11 10 8 8 7 7 7 3 2 3 4 4 3 3 3 3 3 5 3 3 2 3
7 8 8 8 8 8 9 9 10 11 12 11 11 12 12 11 12 13 13 13 13 13 12 11 10 11 9 9 5 3 3 4 5 5 5 4 3 3 3 2 2 4 4 6
7 7 8 9 9 9 9 9 9 10 10 11 11 11 12 12 12 13 13 14 13 15 12 11 10 14 12 11 7 7 7 7 8 8 8 8 7 7 7 8 8 9 10 10
7 7 8 9 9 9 10 9 9 10 11 11 11 11 11 13 12 13 14 13 13 14 13 13 15 15 14 9 9 9 9 10 10 11 11 11 11 11 11 11 11 11 12 13
6 7 7 8 9 9 10 10 10 10 10 10 11 11 11 11 12 11 12 13 14 14 14 14 14 15 13 10 10 10 10 11 12 12 12 13 12 13 12 12 13 13 13 14
5 6 6 8 9 10 10 10 10 10 11 11 11 10 10 10 11 11 11 12 14 13 12 14 15 14 12 12 11 11 11 11 12 12 13 13 14 14 14 14 14 14 14 14
4 6 7 7 9 9 10 10 11 11 11 12 11 11 10 10 10 11 11 12 12 13 12 12 12 12 12 12 12 12 12 12 12 13 13 14 14 15 14 14 14 15 15 15
4 5 3 7 8 9 9 10 11 11 11 11 11 11 11 10 11 11 12 11 11 11 12 12 11 12 12 12 12 13 13 13 14 13 14 14 14 14 15 15 15 15 15 16